Location: Praha
(50.0830°N, 14.4670°E)
Time: 11:03:41
(UTC+02:00)

ISS - Pass Details

Date: 19 September 2022
Orbit: 415 x 420 km, 51.6° (Epoch: 02 October)

Event Time Altitude Azimuth Distance (km) Brightness Sun altitude
Rises 20:19:18 0° 241° (WSW) 2,380 0.8 -12.2°
Reaches altitude 10° 20:21:24 10° 238° (WSW) 1,515 -0.3 -12.5°
Maximum altitude 20:24:47 63° 157° (SSE) 479 -3.7 -13.0°
Enters shadow 20:26:47 22° 81° (E) 983 -2.4 -13.4°
